This is the latest recevied weather packets stored in our database for station/object NR0A-4. If no packets are shown the sender has not sent any weather packets the latest 10 day(s).
| Time | Temp. | Humidity | Pressure | Rain* | Wind** | Luminosity | Snow |
|---|---|---|---|---|---|---|---|
| 1788204604 | 28.89° C | 63% | 1014.3 hPa | 0 mm | - | 744 W/m² | - |
| 1788204304 | 28.89° C | 60% | 1014.4 hPa | 0 mm | - | 749 W/m² | - |
| 1788204004 | 29.44° C | 58% | 1014.4 hPa | 0 mm | - | 754 W/m² | - |
| 1788203704 | 29.44° C | 58% | 1014.5 hPa | 0 mm | - | 758 W/m² | - |
| 1788203404 | 29.44° C | 60% | 1014.5 hPa | 0 mm | - | 758 W/m² | - |
| 1788203113 | 28.89° C | 61% | 1014.5 hPa | 0 mm | - | 759 W/m² | - |
| 1788202804 | 28.89° C | 59% | 1014.5 hPa | 0 mm | - | 763 W/m² | - |
| 1788202503 | 28.89° C | 59% | 1014.5 hPa | 0 mm | - | 765 W/m² | - |
| 1788202223 | 28.89° C | 62% | 1014.4 hPa | 0 mm | - | 766 W/m² | - |
| 1788201905 | 28.89° C | 61% | 1014.5 hPa | 0 mm | - | 768 W/m² | - |
| 1788201605 | 28.89° C | 61% | 1014.6 hPa | 0 mm | - | 770 W/m² | - |
| 1788201311 | 28.33° C | 62% | 1014.6 hPa | 0 mm | - | 766 W/m² | - |
| 1788201004 | 28.33° C | 63% | 1014.6 hPa | 0 mm | - | 768 W/m² | - |
| 1788200704 | 28.33° C | 64% | 1014.5 hPa | 0 mm | - | 768 W/m² | - |
| 1788200405 | 27.78° C | 63% | 1014.5 hPa | 0 mm | - | 766 W/m² | - |
| 1788200104 | 27.78° C | 63% | 1014.5 hPa | 0 mm | - | 761 W/m² | - |
| 1788199804 | 27.78° C | 69% | 1014.5 hPa | 0 mm | - | 765 W/m² | - |
| 1788199504 | 27.78° C | 65% | 1014.4 hPa | 0 mm | - | 759 W/m² | - |
| 1788199204 | 27.78° C | 65% | 1014.4 hPa | 0 mm | - | 759 W/m² | - |
| 1788198904 | 27.22° C | 65% | 1014.3 hPa | 0 mm | - | 756 W/m² | - |
| 1788198605 | 27.22° C | 66% | 1014.3 hPa | 0 mm | - | 758 W/m² | - |
| 1788198304 | 27.22° C | 68% | 1014.3 hPa | 0 mm | - | 756 W/m² | - |
| 1788198004 | 26.67° C | 67% | 1014.4 hPa | 0 mm | - | 752 W/m² | - |
| 1788197704 | 26.67° C | 66% | 1014.6 hPa | 0 mm | - | 747 W/m² | - |
| 1788197404 | 26.67° C | 66% | 1014.5 hPa | 0 mm | - | 744 W/m² | - |
* Rain latest hour (hover to see other rain measurements)
** Current wind speed in m/s (hover to see current wind gust speed)